Flag for Canada Weather past 2 weeks in Wood Buffalo, Alberta, Canada

Now
51 °F

Cool.


Feels Like: 45 °F
Forecast: 37 / 49 °F
Wind: 21 mph from East

Location: Fort McMurray CS


UV Index: 0 (Low)

Visibility: N/A


Pressure: 29.71 "Hg

Humidity: 41%

Dew point: 28 °F

Location of Wood BuffaloLocation

Historic Weather in Wood Buffalo

°F

Wood Buffalo temperature yesterday

Maximum temperature yesterday: 57 °F (at 3:00 PM)
Minimum temperature yesterday: 30 °F (at 6:00 AM)
Average temperature yesterday: 44 °F

Past Weeks' High & Low Weather Summary

 TemperatureHumidityPressure
High61 °F (Apr 8, 6:00 PM)100% (Apr 18, 7:00 PM)30.57 "Hg (Apr 18, 7:00 PM)
Low-2 °F (Apr 12, 4:00 AM)24% (Apr 9, 5:00 PM)29.34 "Hg (Apr 8, 8:00 PM)
Average33 °F62%29.98 "Hg
* Reported Apr 8 3:00 PM — Apr 23 3:00 PM, Wood Buffalo, Weather by CustomWeather, © 2014

Note: Actual official high and low records may vary slightly from our data, if they occured in-between our weather recording intervals... More about our weather records

Advertising

Historic Weather Conditions — Data for Previous 24 hours

 ConditionsComfort  
Time TempWeatherWind HumidityBarometerVisibility
3:00 PM
Apr 23
51 °FCool.22 mph40%29.71 "HgN/A
2:00 PM51 °FCool.18 mph45%29.71 "HgN/A
1:00 PM49 °FCool.18 mph49%29.72 "HgN/A
12:00 PM47 °FCool.21 mph51%29.72 "HgN/A
11:00 AM46 °FCool.20 mph55%29.72 "HgN/A
10:00 AM46 °FCool.21 mph58%29.71 "HgN/A
9:00 AM43 °FQuite cool.16 mph64%29.72 "HgN/A
8:00 AM40 °FQuite cool.13 mph69%29.73 "HgN/A
7:00 AM39 °FChilly.13 mph72%29.75 "HgN/A
6:00 AM39 °FChilly.13 mph72%29.75 "HgN/A
5:00 AM39 °FChilly.15 mph73%29.76 "HgN/A
4:00 AM40 °FChilly.15 mph72%29.76 "HgN/A
3:00 AM40 °FChilly.15 mph74%29.78 "HgN/A
2:00 AM40 °FQuite cool.13 mph70%29.80 "HgN/A
1:00 AM40 °FQuite cool.12 mph75%29.81 "HgN/A
12:00 AM41 °FQuite cool.13 mph68%29.83 "HgN/A
11:00 PM
Apr 22
42 °FQuite cool.15 mph64%29.84 "HgN/A
10:00 PM43 °FQuite cool.13 mph58%29.83 "HgN/A
9:00 PM45 °FCool.13 mph51%29.84 "HgN/A
8:00 PM47 °FCool.13 mph45%29.85 "HgN/A
7:00 PM51 °FCool.14 mph39%29.85 "HgN/A
6:00 PM54 °FCool.13 mph33%29.85 "HgN/A
5:00 PM55 °FRefreshingly cool.16 mph26%29.84 "HgN/A
4:00 PM56 °FRefreshingly cool.15 mph30%29.85 "HgN/A
Weather by CustomWeather, © 2014

See weather overview